Tracking 19794 objects as of 22-Jul-2019
HD Live streaming from Space Station
objects crossing your sky now

NOAA 16 DEB

Track NOAA 16 DEB now!
10-day predictions


NORAD ID: 41356
Int'l Code: 2000-055HZ
Perigee: 841.6 km
Apogee: 911.9 km
Inclination: 98.9 °
Period: 102.3 minutes
Semi major axis: 7247 km
RCS: Unknown
Launch date: September 21, 2000
Source: United States (US)
Launch site: AIR FORCE WESTERN TEST RANGE (AFWTR)

Note: This is SATELLITE DEBRIS
aabbcc
Your satellite tracking list
Your tracking list is empty




NASA's NSSDC Master Catalog

Two Line Element Set (TLE):
1 41356U 00055HZ  19203.00483378  .00000093  00000-0  80796-4 0  9993
2 41356  98.8643 266.6032 0048465  93.8236 266.8476 14.07020238181378
Source of the keplerian elements: AFSPC